Flag for Puerto Rico Weather past 2 weeks in San Juan, Puerto Rico

Now
82 °F

Passing clouds.


Feels Like: 90 °F
Forecast: 80 / 86 °F
Wind: 7 mph from East

Location: Luis Munoz Marin

Current Time: Sep 19, 2014 at 8:28:35 PM

Latest Report: Sep 19, 2014 at 7:56 PM


Visibility: 10 mi

Pressure: 29.96 "Hg

Humidity: 85%

Dew point: 77 °F

Location of San JuanLocation

Historic Weather in San Juan — Graph

°F

San Juan temperature yesterday

Maximum temperature yesterday: 88 °F (at 11:56 AM)
Minimum temperature yesterday: 79 °F (at 4:56 AM)
Average temperature yesterday: 83 °F

Past Weeks' High & Low Weather Summary

 TemperatureHumidityPressure
High91 °F (Sep 19, 12:56 PM)100% (Sep 7, 9:56 AM)30.07 "Hg (Sep 7, 9:56 AM)
Low74 °F (Sep 19, 5:56 AM)59% (Sep 19, 2:56 PM)29.89 "Hg (Sep 18, 2:56 PM)
Average83 °F81%29.98 "Hg
* Reported Sep 4 6:56 PM — Sep 19 6:56 PM, San Juan, Weather by CustomWeather, © 2014

Note: Actual official high and low records may vary slightly from our data, if they occured in-between our weather recording intervals... More about our weather records

Advertising

San Juan weather history for previous 24 hours

 ConditionsComfort  
Time TempWeatherWind HumidityBarometerVisibility
6:56 PM
Sep 19
84 °FScattered clouds.9 mph80%29.95 "Hg10 mi
5:56 PM86 °FScattered clouds.13 mph70%29.93 "Hg10 mi
4:56 PM88 °FScattered clouds.12 mph63%29.92 "Hg10 mi
3:56 PM89 °FScattered clouds.15 mph65%29.90 "Hg10 mi
2:56 PM90 °FScattered clouds.17 mph59%29.90 "Hg10 mi
1:56 PM90 °FScattered clouds.20 mph61%29.92 "Hg10 mi
12:56 PM91 °FScattered clouds.16 mph60%29.94 "Hg10 mi
11:56 AM89 °FScattered clouds.16 mph65%29.96 "Hg10 mi
10:56 AM88 °FScattered clouds.15 mph70%29.97 "Hg10 mi
9:56 AM85 °FBroken clouds.9 mph83%29.96 "Hg10 mi
8:56 AM81 °FBroken clouds.5 mph94%29.96 "Hg10 mi
7:56 AM75 °FBroken clouds.No wind100%29.95 "Hg10 mi
6:56 AM75 °FPartly cloudy.6 mph100%29.96 "Hg10 mi
5:56 AM74 °FLight rain. Partly cloudy.5 mph100%29.96 "Hg9 mi
4:56 AM75 °FThunderstorms. Passing clouds.6 mph96%29.98 "Hg9 mi
3:56 AM75 °FThunderstorms. Passing clouds.No wind100%29.98 "Hg9 mi
2:56 AM76 °FThunderstorms. Passing clouds.6 mph97%29.94 "Hg9 mi
1:56 AM79 °FThunderstorms. Passing clouds.No wind94%29.95 "Hg10 mi
1:01 AM79 °FThunderstorms. Passing clouds.6 mph89%29.95 "Hg10 mi
12:56 AM79 °FThunderstorms. Passing clouds.6 mph88%29.94 "Hg10 mi
11:56 PM
Sep 18
81 °FThunderstorms. Passing clouds.3 mph77%29.96 "Hg10 mi
10:56 PM80 °FThunderstorms. Partly cloudy.No wind76%29.98 "Hg10 mi
9:56 PM84 °FThunderstorms. Passing clouds.5 mph80%29.97 "Hg10 mi
8:56 PM84 °FPassing clouds.3 mph83%29.95 "Hg10 mi
Weather by CustomWeather, © 2014

See weather overviewHow to use our weather pages